This demonstration page uses our WeatherBlox Daily Observations layout. Learn more.

Left ArrowRight Arrow

41.55636, -103.73856

Hourly Observations for April 11, 2020

Temp ( °F °C ) Dew Point ( °F °C ) Humidity (%) Winds ( mph kmh ) Pressure ( in mb ) Visibility ( mi km ) Precip ( " mm )
6:58 pm 18:58 Partly Cloudy 68 19.9 26 -3.5 20 20 NNE 3 6 29.66 1004 10 16 0.00 0.00
7:58 pm 19:58 Mostly Cloudy 62 16.9 26 -3.6 25 25 E 3 6 29.66 1004 10 16 0.00 0.00
8:58 pm 20:58 Mostly Cloudy 57 13.7 27 -2.9 32 32 ESE 10 17 29.65 1004 10 16 0.00 0.00
9:58 pm 21:58 Mostly Cloudy 52 11.3 28 -2.4 39 39 NNE 12 19 29.66 1005 10 16 0.00 0.00
10:58 pm 22:58 Mostly Clear 50 10 26 -3.3 39 39 NE 16 26 29.63 1004 10 16 0.00 0.00
11:58 pm 23:58 Clear 45 7.2 27 -2.9 49 49 E 8 13 29.64 1004 10 16 0.00 0.00
12:58 am 00:58 Clear 39 4 27 -2.8 62 62 Calm 29.68 1005 10 16 0.00 0.00
1:58 am 01:58 Clear 40 4.3 27 -2.8 60 60 NW 5 7 29.67 1005 10 16 0.00 0.00
2:58 am 02:58 Clear 40 4.4 27 -3 59 59 NNE 6 9 29.67 1005 10 16 0.00 0.00
3:58 am 03:58 Mostly Clear 39 3.7 26 -3.2 61 61 Calm 29.67 1005 10 16 0.00 0.00
4:58 am 04:58 Mostly Clear 34 1.1 27 -3 74 74 Calm 29.71 1006 10 16 0.00 0.00
5:58 am 05:58 Mostly Cloudy 38 3.4 27 -2.7 65 65 SSE 6 9 29.68 1005 10 16 0.00 0.00
6:58 am 06:58 Sunny 34 1.2 29 -1.9 80 80 SSW 10 17 29.72 1007 10 16 0.00 0.00
7:58 am 07:58 Sunny 42 5.7 30 -1.2 62 62 SSW 7 11 29.70 1006 10 16 0.00 0.00
8:58 am 08:58 Sunny 51 10.6 30 -1.2 44 44 S 17 28 29.66 1005 10 16 0.00 0.00
9:58 am 09:58 Sunny 55 12.8 28 -2.2 35 35 SSW 7 11 29.66 1005 10 16 0.00 0.00
10:58 am 10:58 Sunny 61 16.1 26 -3.5 26 26 W 10 17 29.62 1003 10 16 0.00 0.00
11:58 am 11:58 Sunny 61 16.1 24 -4.6 24 24 NW 16 26 29.61 1003 10 16 0.00 0.00
12:58 pm 12:58 Partly Cloudy 64 17.8 24 -4.3 22 22 WNW 12 19 29.57 1001 10 16 0.00 0.00
1:58 pm 13:58 Mostly Cloudy 63 17.4 25 -4 23 23 NW 15 24 29.55 1001 10 16 0.00 0.00
2:58 pm 14:58 Mostly Sunny 64 18 23 -5 21 21 WNW 9 15 29.52 1000 10 16 0.00 0.00
3:58 pm 15:58 Partly Cloudy 62 16.5 27 -2.6 27 27 NNW 25 41 29.50 999 10 16 0.00 0.00
4:58 pm 16:58 Mostly Cloudy 60 15.6 28 -2.4 29 29 NNW 29 46 29.51 999 10 16 0.00 0.00
5:58 pm 17:58 Mostly Cloudy 55 12.7 31 -0.5 40 40 N 16 26 29.56 1001 10 16 0.00 0.00

Powered by AerisWeather